274P/Tombaugh-Tenagra (2013)

Japanese version
Home page
Updated on September 21, 2014

---------------------------------------------------------------------

* Profile

Designation 274P/2012 WX32
Re-discovery Date November 27, 2012
Magnitude 18.2 mag
Re-discoverer M. Schwartz and P. R. Holvorcem (Tenagra II Observatory near Nogales, AZ, U.S.A.)

* Pictures

* Orbital Elements

Epoch 2013 Mar. 9.0 TT = JDT 2456360.5
T 2013 Feb. 23.34740 TT                                 MPC
q   2.4418690            (2000.0)            P               Q
n   0.10822136     Peri.   38.45795     -0.47394490     -0.83819324
a   4.3610801      Node    81.36285     +0.72522034     -0.54536209
e   0.4400770      Incl.   15.83842     +0.49943136     -0.00350344
P   9.11
From 156 observations 1931 Jan. 12-2012 Dec. 21, mean residual 0".5.

* Magnitudes Graph

        m1 = 12.0 + 5 log d + 10.0 log r

---------------------------------------------------------------------

The orbital elements are published on M.P.E.C. 2012-Y30.
The magnitudes graphs are made with Comet for Windows.

---------------------------------------------------------------------

Copyright(C) Seiichi Yoshida (comet@aerith.net). All rights reserved.